• Join FlightAware (Why Join?)
  • Login
  • US Flag 
07:06AM EDT


 

Airport Tracker/Info


-or-


 

Live Flight TrackerFlight Track Log ✈ AWE3973 ✈ 29-Jul-2013 ✈ KMHT - KPHL

Flight Track Log - Related Links

Times and Time Zones

All times are in EDT time to prevent confusion due to time zone crossing. See the AWE3973 flight status page for this flight to view local times or setup timezone preferences in your user account.

Time Position Orientation Groundspeed Altitude Reporting Facility
EDT Latitude Longitude Course Direction KTS MPH feet Rate Location/Type
09:37AM 42.9056 -71.5756 265° West 200 230 5,400  Level Boston Center
09:38AM 42.9106 -71.6775 274° West 261 300 7,500 1,980 Climbing Boston Center
09:39AM 42.9153 -71.7794 274° West 273 314 9,500 2,160 Climbing Boston Center
09:40AM 42.9222 -71.8844 275° West 273 314 11,800 2,160 Climbing Boston Center
09:41AM 42.9267 -71.9808 274° West 273 314 13,800 2,040 Climbing Boston Center
09:42AM 42.9333 -72.0997 274° West 284 327 16,100 1,860 Climbing Boston Center
09:43AM 42.9400 -72.1992 275° West 289 333 17,600 1,440 Climbing Boston Center
09:44AM 42.9525 -72.3208 278° West 295 339 19,000 1,440 Climbing Boston Center
09:45AM 42.9589 -72.4428 274° West 301 346 20,600 1,440 Climbing Boston Center
09:46AM 42.9672 -72.5592 276° West 312 359 22,000 1,320 Climbing Boston Center
09:47AM 42.9628 -72.6728 267° West 317 365 23,300 960 Climbing Boston Center
09:48AM 42.9689 -72.7947 274° West 322 371 24,000 300 Climbing Boston Center
09:49AM 42.9744 -72.9281 273° West 334 384 24,000  Level Boston Center
09:50AM 42.9803 -73.0503 274° West 334 384 24,000  Level Boston Center
09:51AM 42.9878 -73.1981 274° West 352 405 24,000  Level Boston Center
09:52AM 42.9869 -73.3172 269° West 352 405 24,000  Level Boston Center
09:53AM 42.9336 -73.4383 239° Southwest 334 384 24,000  Level Boston Center
09:54AM 42.8847 -73.5453 238° Southwest 340 391 24,000  Level Boston Center
09:55AM 42.8336 -73.6519 237° Southwest 340 391 24,000  Level Boston Center
09:56AM 42.7803 -73.7611 236° Southwest 344 396 24,000  Level Boston Center
09:57AM 42.7269 -73.8675 236° Southwest 349 402 24,000  Level Boston Center
09:58AM 42.6714 -73.9764 235° Southwest 349 402 24,000  Level Boston Center
09:59AM 42.6197 -74.0878 238° Southwest 352 405 24,000  Level Boston Center
10:00AM 42.5725 -74.1797 235° Southwest 352 405 24,000  Level Boston Center
10:01AM 42.5144 -74.2936 235° Southwest 352 405 24,000  Level Boston Center
10:02AM 42.4650 -74.3906 235° Southwest 352 405 24,000  Level Boston Center
10:03AM 42.4064 -74.5125 237° Southwest 352 405 24,000  Level Boston Center
10:04AM 42.3464 -74.6058 229° Southwest 352 405 24,000  Level Boston Center
10:05AM 42.2800 -74.7019 227° Southwest 347 399 24,000 -480 Level Boston Center
10:06AM 42.2133 -74.7919 225° Southwest 347 399 23,100 -1,320 Descending Boston Center
10:08AM 42.0711 -74.9894 226° Southwest 340 391 19,700 -1,260 Descending New York Center
10:09AM 41.9989 -75.0911 226° Southwest 345 397 19,000 -360 Descending New York Center
10:10AM 41.9253 -75.1642 216° Southwest 338 389 19,000  Level New York Center
10:11AM 41.8436 -75.2339 212° Southwest 343 395 19,000 -600 Level New York Center
10:12AM 41.7728 -75.2903 211° Southwest 348 400 17,800 -1,380 Descending New York Center
10:13AM 41.6933 -75.3544 211° Southwest 342 394 16,300 -1,620 Descending New York Center
10:14AM 41.6094 -75.4236 212° Southwest 335 386 14,600 -1,620 Descending New York Center
10:15AM 41.5342 -75.4822 210° Southwest 330 380 13,200 -1,260 Descending New York Center
10:16AM 41.4589 -75.5433 211° Southwest 330 380 12,100 -660 Descending New York Center
10:17AM 41.3922 -75.5967 211° Southwest 323 372 12,000  Descending New York Center
10:18AM 41.3083 -75.6597 209° Southwest 323 372 12,100 -240 Climbing New York Center
10:19AM 41.2244 -75.6728 187° South 310 357 11,600 -720 Descending New York Center
10:20AM 41.1358 -75.6528 170° South 310 357 10,700 -780 Descending New York Center
10:21AM 41.0472 -75.6269 168° South 322 371 10,100 -360 Descending New York Center
10:22AM 40.9711 -75.6022 166° South 327 376 10,000 -60 Descending New York Center
10:23AM 40.8889 -75.5772 167° South 315 362 10,000  Level New York Center
10:24AM 40.8006 -75.5464 165° South 303 349 10,000  Level New York Center
10:25AM 40.7222 -75.5217 167° South 297 342 10,000  Level New York Center
10:26AM 40.6442 -75.4944 165° South 297 342 10,000  Level New York Center
10:27AM 40.5783 -75.4736 166° South 291 335 10,000  Level New York Center
10:28AM 40.5042 -75.4494 166° South 285 328 10,000 -600 Level New York Center
10:29AM 40.4222 -75.4139 162° South 280 322 8,900  Descending New York Center
10:30AM 40.3569 -75.3794 158° South 280 322 10,000 -960 Climbing New York Center
10:31AM 40.2897 -75.3397 156° South 280 322 7,000 -1,620 Descending New York Center
10:32AM 40.2122 -75.2936 156° South 274 315 6,800 -540 Descending New York Center
10:33AM 40.1497 -75.2381 146° Southeast 274 315 6,000 -420 Descending New York Center
10:35AM 40.0833 -75.1667 141° Southeast 243 280 6,000  Level Philadelphia TRACON
10:36AM 40.0333 -75.1167 143° Southeast 220 253 6,000 -300 Level Philadelphia TRACON
10:37AM 40.0000 -75.0667 131° Southeast 201 231 5,500 -900 Descending Philadelphia TRACON
10:38AM 40.0000 -75.0000 90° East 182 209 4,200 -1,440 Descending Philadelphia TRACON
10:39AM 39.9500 -74.9667 153° Southeast 175 201 2,700 -1,140 Descending Philadelphia TRACON
10:40AM 39.9333 -75.0167 247° West 174 200 2,000 -360 Descending Philadelphia TRACON
10:41AM 39.9167 -75.0833 252° West 181 208 2,000 -360 Level Philadelphia TRACON
10:42AM 39.9000 -75.1333 247° West 164 189 1,300 -720 Descending Philadelphia TRACON
10:43AM 39.8833 -75.1833 247° West 137 158 600 -780 Descending Philadelphia TRACON
10:45AM 39.8667 -75.2333 247° West  Level FlightAware Approximate
10:52AM 39.8722 -75.2409 247° West  Level Estimated